Za jedním ze sedmi divů světa. S dopravcem EGYPTAIR se do Prahy po 13 letech vrací přímé spojení do Káhiry

09.04.24 Letiště Václava Havla Praha se od 9. července znovu dočká přímých letů do Káhiry. Do egyptské metropole bude třikrát týdně létat tamní vlajkový dopravce EGYPTAIR, vždy v úterý, čtvrtek a neděli. Linka zároveň nabídne zajímavé možnosti pro navazující lety do dalších 75 destinací dopravce EGYPTAIR včetně dalších měst v Egyptě a celé Africe, Číně či Indii Celý článek

Technologie Honeywell Aerospace umožní globální doručování zásilek ve stejný den i rychlejší a udržitelnější lety v městských oblastech a jejich okolí.

20.03.24 Společnost Honeywell, globální lídr v leteckých a vesmírných inovacích, oznámila, že její obchodní jednotka Advanced Air Mobility (AAM) zabývající se pokročilou leteckou mobilitou si již zajistila smlouvy v hodnotě přes 10 miliard amerických dolarů. Celý článek

Zprávy

aktualizováno

18.04.24 Celý článek

Všechny zprávy    

Všechny články

Kurzy

Kalendář akcí

ICAO English Exam / Zkouška - každý pátek v měsíci
19.04.24 Online Worldwide Campus or Flying Academy Beranových 130 Praha
ICAO English Exam / Zkouška - každý pátek v měsíci
26.04.24 Online Worldwide Campus or Flying Academy Beranových 130 Praha
ICAO English Exam / Zkouška - každý pátek v měsíci
03.05.24 Online Worldwide Campus or Flying Academy Beranových 130 Praha
ICAO English Exam / Zkouška - každý pátek v měsíci
10.05.24 Online Worldwide Campus or Flying Academy Beranových 130 Praha
Austro Control Exam PPL / ATPL
14.05.24 Flying Academy Beranových 130 Praha

Všechny akce

Zeptejte se odborníka

Zkušený personál jedné z největších leteckých škol Flying Academy je připraven Vám pomoci s jakýmikoli otázkami týkajícími se letectví.

Zeptejte se

Newsletter

Přihlaste se k odběru novinek.

Aktuální počasí

LKKB
LKKB 181700Z 33007KT 280V360 CAVOK 08/M03 Q1015 NOSIG

LKKV
LKKV 181700Z 35006KT 310V040 9999 SCT043 06/M04 Q1015

LKMT
LKMT 181700Z 35007KT 9999 FEW033 07/M00 Q1012 NOSIG

LKPR
LKPR 181700Z 33007KT CAVOK 07/M03 Q1015 NOSIG

LKTB
LKTB 181700Z 34011KT CAVOK 08/M02 Q1012 NOSIG

Briefing

Kurzy měn

AUD AUD 15.25 Kč
EUR EUR 25.27 Kč
GBP GBP 29.50 Kč
HUF HUF 6.42 Kč
CHF CHF 26.03 Kč
USD USD 23.66 Kč